[[{"header":{"parameterUnit":"m.s-1","parameterCategory":1,"la1":30.2991,"la2":30.254,"lo1":-89.0895,"lo2":-89.0444,"dy":0.0017,"dx":0.0017,"nx":28,"ny":28,"refTime":"2023-11-05T03:00:00:Z","depth":0,"parameterNumber":2,"parameterNumberName":"U-component_of_WINDS"},"data":[0,0,0,0,0,0,0,0,0,0,0,0,0,0,0,0,0,0,0,0,0,0,0,0,0,0,0,0,0,0,0,0,0,0,0,0,0,0,0,0,0,0,0,0,0,0,0,0,0,0,0,0,0,0,0,0,0,0,0.6683,0.6683,0,0.6737,0.6738,0.6738,0.6745,0.6745,0.6744,0.6743,0.68,0.6802,0.6804,0,0,0,0,0,0,0,0,0,0,0,0,0,0.6584,0.6586,0.6682,0.6683,0.6684,0.6737,0.6738,0.6739,0.6745,0.6744,0.6744,0.6743,0.6799,0.6802,0.6804,0,0,0,0,0,0,0,0,0,0,0,0,0,0.6631,0.6586,0.6682,0.6694,0.6695,0.6737,0.6738,0.6739,0.6745,0.6744,0.6744,0.6743,0.6799,0.6802,0.6805,0.6839,0,0,0.6814,0.6815,0,0,0,0,0,0,0,0,0.6629,0.6635,0.6691,0.6693,0.6695,0.6733,0.6724,0.6773,0.6745,0.6726,0.6743,0.6743,0.6779,0.6783,0.6795,0.6842,0.6844,0.6814,0.6816,0.6817,0.6818,0,0,0,0,0,0,0,0.6625,0.6633,0.6704,0.6692,0.6694,0.6696,0.6702,0.6733,0.6756,0.6728,0.6728,0.6735,0.6779,0.6792,0.6797,0.6845,0.6814,0.6817,0.6819,0.682,0.6923,0.6924,0,0,0,0,0,0,0.662,0.663,0.6702,0.6706,0.6659,0.6698,0.6705,0.6722,0.6756,0.676,0.6735,0.6735,0.6788,0.6793,0.6799,0.6841,0.6817,0.682,0.6822,0.6922,0.6923,0.6924,0,0,0,0,0,0,0.6618,0.6626,0.67,0.6668,0.6678,0.6701,0.672,0.6723,0.6736,0.6762,0.6766,0.6744,0.6787,0.6794,0.6829,0.6843,0.6821,0.6824,0.6921,0.6922,0.6923,0.6927,0,0,0,0,0,0,0.6615,0.6626,0.6639,0.6668,0.6679,0.6729,0.6721,0.6725,0.6741,0.6741,0.6771,0.6775,0.6787,0.6824,0.6832,0.6847,0.6826,0.692,0.6921,0.6923,0.6925,0.6928,0.693,0,0,0,0,0,0.6611,0.6638,0.664,0.6648,0.6696,0.673,0.6737,0.6749,0.6743,0.6756,0.6772,0.6774,0.6841,0.6828,0.6837,0.6853,0.6919,0.6921,0.6923,0.6924,0.6927,0.693,0,0,0,0,0,0,0.661,0.6642,0.6644,0.6681,0.6703,0.6731,0.6749,0.6752,0.6777,0.6776,0.6791,0.6797,0.6831,0.6845,0.6831,0.6888,0.6879,0.6883,0.6877,0.688,0.6883,0.6878,0.6829,0,0,0,0,0,0.6614,0.6638,0.6665,0.6695,0.6706,0.6725,0.6741,0.6749,0.6772,0.6781,0.68,0.6823,0.6849,0.6865,0.6891,0.6928,0.6934,0.6943,0.6945,0.6947,0.695,0.697,0.6974,0.6931,0.6931,0.6931,0,0,0.6622,0.6643,0.6657,0.6695,0.6713,0.6738,0.6733,0.676,0.6779,0.6786,0.6819,0.6834,0.686,0.6896,0.6912,0.6909,0.6964,0.695,0.6951,0.6953,0.6973,0.6977,0.698,0.6932,0.6932,0.6932,0,0,0.665,0.6668,0.6695,0.6713,0.674,0.6753,0.6759,0.6787,0.6797,0.6831,0.6836,0.6859,0.6903,0.6921,0.6936,0.6971,0.6974,0.6979,0.6991,0.7011,0.7014,0.7017,0.7029,0.7033,0.6982,0.6982,0.6982,0,0.6657,0.6695,0.6708,0.6735,0.6751,0.6758,0.6785,0.6802,0.6836,0.6847,0.6842,0.6897,0.6916,0.6956,0.6964,0.6976,0.6984,0.6975,0.7013,0.7016,0.7019,0.703,0.7035,0.6982,0.6982,0.6982,0.6982,0,0.6702,0.6728,0.6746,0.6778,0.6797,0.6824,0.6841,0.6858,0.6864,0.6878,0.6912,0.6934,0.6963,0.6974,0.698,0.7014,0.7011,0.701,0.7001,0.7023,0.7034,0.7039,0.6983,0.6983,0.6983,0.6983,0,0,0.673,0.6769,0.6775,0.679,0.682,0.6841,0.6868,0.6896,0.691,0.6934,0.6956,0.6994,0.6992,0.7009,0.7018,0.7035,0.706,0.7031,0.7032,0.7035,0.7099,0.7099,0.7104,0.7063,0.7064,0.7064,0.7096,0,0.676,0.6808,0.6821,0.6862,0.6886,0.6893,0.6916,0.6937,0.695,0.6973,0.6988,0.7014,0.701,0.702,0.7037,0.7054,0.7073,0.7052,0.7084,0.7085,0.7076,0.711,0.7111,0.714,0.7101,0.7101,0.7102,0,0.6803,0.6826,0.6869,0.6896,0.6907,0.6927,0.6954,0.6976,0.7,0.7009,0.7028,0.7035,0.7063,0.7053,0.7092,0.7077,0.7091,0.7101,0.7103,0.7106,0.7094,0.7113,0.715,0.7154,0.7109,0.7108,0.7108,0,0.6818,0.6861,0.6892,0.6904,0.6936,0.6951,0.6965,0.6988,0.7004,0.7028,0.7039,0.7066,0.708,0.7101,0.7115,0.7107,0.7153,0.7145,0.7161,0.716,0.7169,0.7169,0.7208,0.718,0.7179,0.7179,0.7179,0,0.685,0.6876,0.6899,0.6918,0.6947,0.6961,0.699,0.7004,0.7025,0.7047,0.7055,0.7075,0.7093,0.7116,0.7127,0.7158,0.7164,0.7172,0.7174,0.7171,0.717,0.718,0.7178,0.7181,0.718,0.718,0.718,0,0.6872,0.6888,0.6922,0.695,0.6958,0.6978,0.7001,0.702,0.7034,0.7061,0.7069,0.709,0.7117,0.7134,0.7169,0.7176,0.7209,0.7212,0.7201,0.7202,0.7217,0.7215,0.7263,0.727,0.7238,0.7238,0.7238,0,0.6891,0.6911,0.6941,0.6956,0.697,0.6995,0.7011,0.7026,0.7043,0.7072,0.7087,0.7115,0.7138,0.7181,0.72,0.7227,0.7229,0.7244,0.7233,0.7228,0.7228,0.7227,0.7229,0.7246,0.7246,0.7246,0.7246,0,0.6923,0.693,0.6954,0.698,0.7,0.7021,0.7043,0.7055,0.7074,0.7092,0.712,0.7138,0.7173,0.72,0.7229,0.7243,0.7248,0.725,0.7255,0.7251,0.7244,0.7247,0.7205,0.7249,0.7248,0.7248,0.7248,0.7248,0.6944,0.6962,0.6985,0.7011,0.7029,0.7049,0.7068,0.7083,0.7107,0.7136,0.7144,0.7173,0.7197,0.7235,0.725,0.7273,0.7271,0.7278,0.728,0.7282,0.7281,0.7241,0.7279,0.7279,0.7279,0.7279,0.7279,0,0.6976,0.6992,0.7015,0.7045,0.7065,0.7068,0.7092,0.7109,0.7134,0.7156,0.7178,0.721,0.7236,0.7257,0.7284,0.7299,0.7302,0.7305,0.7304,0.7307,0.7282,0.7275,0.7303,0.7303,0.7303,0.7303,0.7303,0.7303,0.6995,0.7025,0.7035,0.7074,0.709,0.7118,0.7131,0.715,0.7167,0.7202,0.7224,0.7237,0.7258,0.7287,0.7312,0.7317,0.7327,0.733,0.7336,0.7312,0.7309,0.7307,0.73,0.7332,0.7332,0.7358,0.7359,0.7359]},{"header":{"parameterUnit":"m.s-1","parameterCategory":1,"la1":30.2991,"la2":30.254,"lo1":-89.0895,"lo2":-89.0444,"dy":0.0017,"dx":0.0017,"nx":28,"ny":28,"refTime":"2023-11-05T03:00:00:Z","depth":0,"parameterNumber":3,"parameterNumberName":"V-component_of_WINDS"},"data":[0,0,0,0,0,0,0,0,0,0,0,0,0,0,0,0,0,0,0,0,0,0,0,0,0,0,0,0,0,0,0,0,0,0,0,0,0,0,0,0,0,0,0,0,0,0,0,0,0,0,0,0,0,0,0,0,0,0,2.7881,2.788,0,2.7811,2.781,2.7809,2.7726,2.7725,2.7724,2.7722,2.7649,2.7648,2.7647,0,0,0,0,0,0,0,0,0,0,0,0,0,2.794,2.794,2.7881,2.788,2.7879,2.7811,2.781,2.7809,2.7726,2.7725,2.7723,2.7722,2.7649,2.7648,2.7647,0,0,0,0,0,0,0,0,0,0,0,0,0,2.7897,2.7939,2.7881,2.783,2.7824,2.7811,2.781,2.7809,2.7727,2.7725,2.7723,2.7721,2.7649,2.7648,2.7647,2.7678,0,0,2.7644,2.7643,0,0,0,0,0,0,0,0,2.7899,2.7895,2.7838,2.7833,2.7827,2.7775,2.7804,2.7765,2.7727,2.7764,2.7722,2.772,2.7692,2.7688,2.7679,2.7675,2.7672,2.7644,2.7643,2.7642,2.7642,0,0,0,0,0,0,0,2.7903,2.7897,2.7853,2.7837,2.7831,2.7809,2.7801,2.7796,2.774,2.776,2.7754,2.7747,2.7689,2.768,2.7676,2.7671,2.7644,2.7643,2.7642,2.7641,2.7687,2.7689,0,0,0,0,0,0,2.7914,2.79,2.7855,2.7851,2.7859,2.781,2.7801,2.7794,2.7739,2.7729,2.7749,2.7744,2.7683,2.7678,2.7673,2.7705,2.7642,2.7641,2.7641,2.7685,2.7687,2.769,0,0,0,0,0,0,2.7915,2.791,2.7858,2.7874,2.7866,2.7811,2.7804,2.7793,2.7784,2.7731,2.772,2.775,2.7681,2.7675,2.7677,2.7702,2.7641,2.764,2.7683,2.7686,2.7688,2.777,0,0,0,0,0,0,2.7917,2.7911,2.7923,2.7875,2.7865,2.7865,2.7805,2.7793,2.7783,2.7775,2.7729,2.772,2.7679,2.768,2.7676,2.7699,2.7639,2.768,2.7684,2.7688,2.7765,2.7776,2.7784,0,0,0,0,0,2.792,2.7949,2.7924,2.7919,2.7879,2.7866,2.786,2.7814,2.7785,2.7796,2.7761,2.7721,2.77,2.7681,2.7676,2.7699,2.7679,2.7683,2.7687,2.7761,2.7774,2.7784,0,0,0,0,0,0,2.8001,2.7942,2.7914,2.7928,2.7903,2.7852,2.7865,2.7829,2.7811,2.7804,2.7747,2.7737,2.7746,2.7722,2.7702,2.7725,2.7683,2.7687,2.7741,2.7752,2.7762,2.7767,2.7638,0,0,0,0,0,2.8021,2.8016,2.7964,2.7982,2.7971,2.792,2.7913,2.7879,2.785,2.7839,2.7804,2.7777,2.7764,2.7757,2.7742,2.7761,2.7749,2.7774,2.7784,2.7792,2.7796,2.7803,2.7814,2.7704,2.7704,2.7704,0,0,2.8062,2.8029,2.8029,2.7998,2.7974,2.7969,2.7912,2.7909,2.7905,2.7838,2.7839,2.7812,2.7778,2.7789,2.7792,2.7769,2.7824,2.7798,2.7805,2.7804,2.7809,2.7819,2.7829,2.7707,2.7706,2.7706,0,0,2.8134,2.8108,2.812,2.8098,2.8063,2.8029,2.8032,2.7986,2.7966,2.7966,2.7915,2.7908,2.7887,2.7865,2.7851,2.7913,2.7875,2.791,2.796,2.7968,2.7977,2.7984,2.8006,2.8015,2.7914,2.7914,2.7914,0,2.8189,2.8181,2.8131,2.8132,2.8119,2.8058,2.8069,2.8049,2.8011,2.8003,2.7979,2.7951,2.7923,2.7928,2.7943,2.7934,2.7934,2.7915,2.798,2.7987,2.7993,2.8013,2.8021,2.7918,2.7918,2.7917,2.7917,0,2.8249,2.8245,2.8258,2.8223,2.8212,2.8218,2.8168,2.8163,2.813,2.8098,2.8098,2.8063,2.8039,2.8037,2.8005,2.8037,2.8024,2.7991,2.7947,2.8009,2.8026,2.8034,2.7925,2.7923,2.7922,2.7921,0,0,2.8371,2.8308,2.8314,2.8297,2.8254,2.8249,2.8251,2.8229,2.8225,2.82,2.8201,2.8184,2.8152,2.8136,2.81,2.8108,2.8158,2.8073,2.8071,2.809,2.819,2.8216,2.8226,2.8133,2.8134,2.8135,2.8193,0,2.8435,2.8437,2.8392,2.8406,2.84,2.8342,2.8344,2.8317,2.8288,2.8278,2.8244,2.8233,2.8193,2.8182,2.8187,2.8152,2.8178,2.8147,2.8131,2.8132,2.8142,2.8235,2.8262,2.8319,2.82,2.8201,2.8202,0,2.851,2.849,2.8504,2.8459,2.8455,2.8458,2.8433,2.8425,2.8393,2.837,2.8352,2.8312,2.831,2.8269,2.8265,2.8245,2.8236,2.8217,2.8218,2.8215,2.8171,2.8234,2.8336,2.8345,2.8212,2.8211,2.8211,0,2.8597,2.8574,2.8579,2.8566,2.8514,2.8517,2.8496,2.8462,2.8451,2.8429,2.8421,2.8399,2.8387,2.837,2.8324,2.8299,2.8326,2.8281,2.8306,2.8308,2.8315,2.8315,2.8416,2.8309,2.8309,2.8309,2.8309,0,2.8673,2.8684,2.8617,2.862,2.863,2.8578,2.8588,2.8561,2.8531,2.8527,2.8475,2.8472,2.8411,2.8401,2.8365,2.8367,2.8362,2.8343,2.8333,2.8348,2.835,2.8341,2.8336,2.8311,2.8311,2.831,2.831,0,2.8772,2.8728,2.873,2.8681,2.8668,2.8678,2.8635,2.8635,2.8602,2.8597,2.8593,2.8541,2.8526,2.8479,2.8452,2.8427,2.844,2.8422,2.8452,2.8445,2.8473,2.8471,2.8572,2.8583,2.847,2.8471,2.8472,0,2.8824,2.8831,2.8782,2.8776,2.8757,2.8748,2.8736,2.8684,2.8675,2.8638,2.8642,2.8624,2.8606,2.8585,2.8544,2.8523,2.8503,2.854,2.85,2.8514,2.8503,2.8504,2.8504,2.8549,2.855,2.8552,2.8553,0,2.892,2.8897,2.8884,2.8862,2.885,2.8831,2.8808,2.8806,2.8747,2.8739,2.8723,2.871,2.8682,2.8664,2.8636,2.8612,2.8573,2.8566,2.857,2.8585,2.8602,2.8593,2.8475,2.8564,2.8562,2.8562,2.8561,2.8561,2.8996,2.8999,2.8966,2.8952,2.8929,2.8909,2.8907,2.8873,2.886,2.8834,2.8804,2.8792,2.8758,2.8717,2.8696,2.8685,2.8664,2.8671,2.8672,2.8675,2.8682,2.8604,2.868,2.8679,2.8679,2.8679,2.8678,0,2.9089,2.9064,2.9052,2.9022,2.9011,2.8975,2.8948,2.8941,2.8931,2.8904,2.8887,2.8869,2.8851,2.8808,2.8786,2.8785,2.8766,2.8781,2.878,2.8775,2.8702,2.87,2.8796,2.8796,2.8796,2.8796,2.8796,2.8796,2.9136,2.914,2.9113,2.9105,2.9079,2.9068,2.9056,2.9036,2.9014,2.8996,2.8981,2.8954,2.8919,2.8894,2.8875,2.8862,2.8856,2.8877,2.8859,2.8792,2.8781,2.877,2.8768,2.8876,2.8877,2.8933,2.8933,2.8934]}]]